Weather History for PHNG - December, 2013

Change the Weather History Date:

Thursday, December 5, 2013

  Actual Average Record
Temperature  
Mean Temperature 76 °F -  
Max Temperature 80 °F 76 °F 82 °F (2004)
Min Temperature 71 °F 69 °F 46 °F (2002)
Cooling Degree Days 10    
Growing Degree Days 26 (Base 50)    
Moisture  
Dew Point 65 °F    
Average Humidity 67    
Maximum Humidity 78    
Minimum Humidity 57    
Precipitation  
Precipitation 0.00 in - - ()
Sea Level Pressure  
Sea Level Pressure 29.96 in    
Wind  
Wind Speed 1 mph (NE)    
Max Wind Speed 6 mph    
Max Gust Speed -    
Visibility 9 miles    
Events      
Averages and records for this station are not official NWS values.
T = Trace of Precipitation, MM = Missing Value Source: NWS Daily Summary

Daily Weather History Graph

Daily Weather History Graph

Search for Another Location

Airport or City:

Trip Planner

Search our weather history database for the weather conditions in past years. The results will help you decide how hot, cold, wet, or windy it might be!

Date:

Astronomy

Dec. 05, 2013 Rise Set
Actual Time 6:55 AM HST 5:48 PM HST
Civil Twilight 6:31 AM HST 6:12 PM HST
Nautical Twilight 6:03 AM HST 6:40 PM HST
Astronomical Twilight 5:36 AM HST 7:07 PM HST
Moon 9:35 AM HST (12/5) 9:09 PM HST (12/5)
Length of Visible Light 11h 41m
Length of Day
10h 53m
Waxing Crescent, 12% of the Moon is Illuminated
Dec 5
Waxing Crescent
Dec 9
First Quarter
Dec 16
Full
Dec 25
Last Quarter
Jan 1
New

Hourly Weather History & Observations

Time (HST) Temp. Heat Index Dew Point Humidity Pressure Visibility Wind Dir Wind Speed Gust Speed Precip Events Conditions
12:57 AM 71.6 °F - 61.0 °F 69% 29.96 in 10.0 mi Calm Calm - N/A   Partly Cloudy
1:57 AM 72.1 °F - 62.1 °F 70% 29.94 in 10.0 mi Calm Calm - N/A   Mostly Cloudy
2:57 AM 72.9 °F - 64.0 °F 74% 29.93 in 10.0 mi Calm Calm - N/A   Clear
3:57 AM 73.9 °F - 62.1 °F 66% 29.94 in 9.0 mi Calm Calm - N/A   Clear
4:57 AM 74.7 °F - 62.1 °F 65% 29.95 in 9.0 mi Calm Calm - N/A   Clear
5:57 AM 75.2 °F - 61.0 °F 61% 29.96 in 9.0 mi Calm Calm - N/A   Clear
6:57 AM 71.6 °F - 61.0 °F 69% 29.97 in 8.0 mi Calm Calm - N/A   Partly Cloudy
7:57 AM 71.6 °F - 62.1 °F 72% 29.99 in 8.0 mi Calm Calm - N/A   Partly Cloudy
8:57 AM 75.4 °F - 64.9 °F 70% 30.01 in 8.0 mi Calm Calm - N/A   Scattered Clouds
9:57 AM 75.2 °F - 68.0 °F 78% 30.01 in 8.0 mi North 4.6 mph - N/A   Scattered Clouds
10:57 AM 78.8 °F - 66.9 °F 67% 30.00 in 7.0 mi North 4.6 mph - N/A   Scattered Clouds
11:57 AM 78.8 °F - 68.0 °F 69% 29.97 in 9.0 mi ENE 4.6 mph - N/A   Scattered Clouds
12:57 PM 78.8 °F - 64.0 °F 60% 29.93 in 9.0 mi NE 5.8 mph - N/A   Scattered Clouds
1:57 PM 78.8 °F - 66.9 °F 67% 29.91 in 10.0 mi ENE 4.6 mph - N/A   Scattered Clouds
2:57 PM 80.6 °F 82.2 °F 64.0 °F 57% 29.91 in 10.0 mi ENE 5.8 mph - N/A   Scattered Clouds
3:30 PM 80.6 °F 82.7 °F 66.2 °F 61% 29.93 in 6.2 mi NE 4.6 mph - N/A   Mostly Cloudy
3:37 PM 80.6 °F 82.7 °F 66.2 °F 61% 29.93 in 6.2 mi NE 4.6 mph - N/A   Scattered Clouds
3:57 PM 80.6 °F 82.7 °F 66.0 °F 61% 29.92 in 9.0 mi Calm Calm - N/A   Scattered Clouds
4:57 PM 78.8 °F - 64.9 °F 62% 29.93 in 10.0 mi NE 3.5 mph - N/A   Scattered Clouds
5:57 PM 78.8 °F - 66.0 °F 65% 29.94 in 9.0 mi Calm Calm - N/A   Scattered Clouds
6:57 PM 77.0 °F - 64.9 °F 66% 29.96 in 9.0 mi Calm Calm - N/A   Scattered Clouds
7:57 PM 77.0 °F - 64.0 °F 64% 29.97 in 8.0 mi Calm Calm - N/A   Scattered Clouds
8:57 PM 77.0 °F - 64.0 °F 64% 29.99 in 10.0 mi Calm Calm - N/A   Partly Cloudy
9:57 PM 77.0 °F - 66.0 °F 69% 30.00 in 10.0 mi Calm Calm - N/A   Scattered Clouds
10:57 PM 75.2 °F - 66.0 °F 73% 30.00 in 10.0 mi Calm Calm - N/A   Overcast
11:57 PM 75.2 °F - 66.9 °F 75% 29.98 in 10.0 mi Calm Calm - N/A   Clear